Weather in Pomozdino

Russia / Komi Republic     62°11′42″N   54°11′06″E
temp.,
°C
wind,
m/s
gust,
m/s
humid.,
%
clouds,
%
prec.,
mm/h
press.,
hPa
HPBL,
m
11 may, tue
tue1100:00+5nnw269583 0.1 1027208
03:00+3nnw259421 0.1 1028109
06:00+6nnw237694 0.0 1029302
09:00+11w125499 0.0 1029790
12:00+13wsw344286 0.0 10281196
15:00+12wsw3654100 0.0 1028399
18:00+13wsw2762100 0.0 1028359
21:00+11wsw2773100 0.0 1028197
12 may, wed
wed1200:00+9sw2882100 0.0 1028171
03:00+10wsw31281100 0.0 1028333
06:00+13wsw4117168 0.0 1027413
09:00+18wsw585611 0.0 1027804
12:00+21w694657 0.0 10261466
15:00+22w4843100 0.0 10251805
18:00+19w3853100 0.0 1025275
21:00+15w28726 0.0 1026139
13 may, thu
thu1300:00+13w2679100 0.0 1027111
03:00+11wnw228447 0.0 102823
06:00+16nnw117154 0.0 1028164
09:00+21s125447 0.0 1028738
12:00+24sw23390 0.0 10261977
15:00+24sw24360 0.0 10252098
18:00+22sw24495 0.0 1023142
21:00+17ssw236447 0.0 102345
14 may, fri
fri1400:00+15sw25735 0.0 102291
03:00+14wsw27765 0.0 1022133
06:00+18wsw255817 0.0 1021243
09:00+22wsw364937 0.0 1020747
12:00+21wsw3551100 0.0 1020677
15:00+17nw478288 1.1 1019294
18:00+18sw117631 1.6 1017166
21:00+15sse118876 2.8 101722
15 may, sat
sat1500:00+13sw269198 0.1 1016123
03:00+12wsw29956 0.1 1016195
06:00+16wsw31179100 0.0 1016521
09:00+20w4105286 0.0 10161629
12:00+23w484121 0.0 10162346
15:00+23wsw4841100 0.0 10152399
18:00+21wsw385070 0.0 1014455
21:00+16w267197 0.0 1014103